Preview of NWS' New Version of Forecast
This preview is not operational and should not be used for support decisions.

Regional Weather Roundup (RWR)

Issued by National Weather Service (NWS)

                            
000
ASUS42 KTBW 170816
RWRFL 
FLORIDA REGIONAL WEATHER ROUNDUP
NATIONAL WEATHER SERVICE TAMPA BAY RUSKIN FL
400 AM EDT FRI MAY 17 2019

NOTE: "FAIR" INDICATES FEW OR NO CLOUDS BELOW 12,000 FEET WITH NO
SIGNIFICANT WEATHER AND/OR OBSTRUCTIONS TO VISIBILITY.

FLZ001>010-012>015-112-114-115-170900-
PANHANDLE FLORIDA
  
CITY           SKY/WX    TMP DP  RH WIND       PRES   REMARKS
PENSACOLA      FAIR      70  67  90 CALM      29.99F                  
PENSACOLA NAS  FAIR      64  64 100 CALM      29.98F                  
MILTON NAS     FAIR      62  61  96 CALM      29.99F                  
CRESTVIEW      FAIR      61  58  90 CALM      30.01F                  
DUKE FIELD     FAIR      65  62  90 CALM      29.99F                  
VALPARAISO     FAIR      68  63  86 NW3       29.98F                  
MARY ESTHER    CLEAR     64  63  94 CALM      29.98F                  
PANAMA CITY    FAIR      64  61  90 NW3       29.98F                  
TYNDALL AFB    FAIR      66  62  87 CALM      29.98F                  
APALACHICOLA   FAIR      65  60  84 CALM      29.99S                  

STATION/POSITION SKY/WX   TEMP    WIND        PRES    WAVE   SWELL
                          AIR SEA DIR/SP/G            HT/PER HT/PER
                          (F)     (DEG/KT/KT) (MB)    (FT/S) (FT/S)
30.1N   87.6W                                   N/A     1/ 7
29.2N   88.2W                     100/  2/  4 1015.5F   1/ 8   2/ 8
PANAMA CITY BEAC           76 78  280/  6/  7 1016.0F
TOWER C          NOT AVBL

$$
FLZ011-016>038-118-127-128-134-139-239-170900-
NORTH FLORIDA
  
CITY           SKY/WX    TMP DP  RH WIND       PRES   REMARKS
MARIANNA       FAIR      69  65  86 CALM      29.99S                  
TALLAHASSEE    FAIR      64  61  90 CALM      29.99F FOG              
PERRY          FOG       64  64  97 SE6       30.01S VSB 1            
LIVE OAK       CLEAR     66  66 100 CALM      30.00F                  
CROSS CITY     FAIR      66  63  90 CALM      30.01F                  
LAKE CITY      FAIR      63  61  94 CALM      30.02S                  
GAINESVILLE    FAIR      68  61  78 CALM      30.04F                  
WILLISTON      FAIR      65  62  92 CALM      30.02S                  
PALATKA        FAIR     N/A N/A N/A CALM      30.03S                  
MAYPORT NAS    FAIR      67  61  81 S6        30.02F                  
JACKSONVILLE   FAIR      66  60  81 S5        30.01F                  
JAX NAS        FAIR      72  60  66 VRB5      30.02F                  
JAX CECIL      FAIR      61  57  88 CALM      30.02F                  
FERNANDINA BEA FAIR      69  64  83 SW8       30.01F                  
ST AUGUSTINE   FAIR      67  61  81 SW5       30.03F                  
PALM COAST     FAIR      62  60  91 CALM      30.03F                  

STATION/POSITION SKY/WX   TEMP    WIND        PRES    WAVE   SWELL
                          AIR SEA DIR/SP/G            HT/PER HT/PER
                          (F)     (DEG/KT/KT) (MB)    (FT/S) (FT/S)
SHELL POINT      NOT AVBL
KEATON BEACH               69     100/  7/  8 1016.2S
CEDAR KEY                  76     160/ 13/ 14 1016.2S
FERNANDINA                 72 79  160/  4/  6 1016.9F
30.7N   81.3W                 77                N/A     3/ 4   2/14
MAYPORT                    70 79  210/  5/  7 1016.7F
31.4N   80.9W              76 75  200/ 16/ 19 1015.6F   4/ 5   2/ 8
ST AUGUSTINE               69 78  220/  7/  8 1016.8F

$$
FLZ040-043>046-052-053-057-058-063-144-170900-
INTERIOR CENTRAL FLORIDA
  
CITY           SKY/WX    TMP DP  RH WIND       PRES   REMARKS
LEESBURG       FAIR      71  61  70 S9        30.03F                  
SANFORD        FAIR      66  62  87 CALM      30.02F                  
ORLANDO EXEC   FAIR      68  62  81 CALM      30.02S                  
ORLANDO INTL   FAIR      67  61  81 CALM      30.03R                  
KISSIMMEE      FAIR      68  64  87 CALM      30.04R                  
BARTOW         FAIR      64  61  88 CALM      30.02S                  
SEBRING        FAIR      63  61  91 CALM      30.02S                  
OKEECHOBEE     FAIR      63  61  94 NE3       30.00S                  

$$
FLZ041-047-054-059-064-141-147-170900-
EAST CENTRAL FLORIDA
  
CITY           SKY/WX    TMP DP  RH WIND       PRES   REMARKS
DAYTONA BEACH  FAIR      65  63  93 CALM      30.03S                  
DELAND         FAIR      63  61  94 CALM      30.02F                  
JFK SPACE CTR  FAIR      61  58  92 CALM      30.01S                  
CAPE CANAVERAL FAIR      64  56  77 CALM      30.01S                  
PATRICK AFB    FAIR      73  63  72 SE3       30.01S                  
MELBOURNE      FAIR      66  61  84 W5        30.01S                  
VERO BEACH     FAIR      63  60  90 CALM      30.01S                  
FT PIERCE      FAIR      63  59  87 CALM      30.01S                  
STUART         FAIR      70  63  78 CALM      30.02R                  

STATION/POSITION SKY/WX   TEMP    WIND        PRES    WAVE   SWELL
                          AIR SEA DIR/SP/G            HT/PER HT/PER
                          (F)     (DEG/KT/KT) (MB)    (FT/S) (FT/S)
28.5N   80.2W              76     130/  6/  8 1016.7
28.9N   78.5W              74 77  100/  6/  8 1017.5R   3/ 9   3/ 9
TRIDENT PIER               73 80  110/  3/  5 1017.6F
28.4N   80.5W                 78                N/A     2/15   2/15
27.5N   80.2W                 78                N/A     3/15   2/15

$$
FLZ050-056-061-142-242-148-248-149-249-151-251-155-255-
160-260-170900-
WEST CENTRAL FLORIDA
  
CITY           SKY/WX    TMP DP  RH WIND       PRES   REMARKS
CRYSTAL RIVER  FAIR      64  61  88 CALM      30.02S                  
INVERNESS      FAIR      63  63 100 CALM      30.03S                  
BROOKSVILLE    FAIR      65  61  87 E3        30.03R                  
CLEARWATER AIR FAIR      72  63  73 SE5       30.00F                  
ST PETE CLEARW   N/A    N/A N/A N/A MISG      30.01S                  
TAMPA INTL     FAIR      72  63  73 SE9       30.02S                  
TAMPA EXEC     FAIR      63  61  94 CALM      30.03S                  
PLANT CITY     FAIR      68  63  83 E3        30.04S                  
MACDILL AFB    FAIR      70  62  76 SE6       30.01S                  
PETER O KNIGHT CLOUDY    72  64  78 E5        30.02S                  
ST PETERSBURG  FAIR      74  64  71 SE10      29.99S                  
SARASOTA       NOT AVBL                                               
VENICE         FAIR      70  64  83 E8        30.00F                  

STATION/POSITION SKY/WX   TEMP    WIND        PRES    WAVE   SWELL
                          AIR SEA DIR/SP/G            HT/PER HT/PER
                          (F)     (DEG/KT/KT) (MB)    (FT/S) (FT/S)
27.3N   84.2W                 77                N/A     1/ 8
CLEARWATER BEACH           74 82  110/  7/ 10 1016.1S
MIDDLE TAMPA BAY           71     140/ 10/ 12 1016.3R
VENICE                     69 81   80/  6/  7 1015.7F

$$
FLZ066-069-070-075>078-162-262-165-265-170900-
SOUTHWEST FLORIDA AND KEYS
  
CITY           SKY/WX    TMP DP  RH WIND       PRES   REMARKS
FT MYERS       NOT AVBL                                               
NAPLES         FAIR      68  65  90 NE6       29.98S                  
IMMOKALEE      FAIR      63  61  94 N3        29.98R                  
MARATHON       FAIR      81  70  69 E6        29.95S                  
KEY WEST NAS   FAIR      81  70  69 E13       29.95S                  
KEY WEST INTL  FAIR      79  71  76 E13       29.95S                  

STATION/POSITION SKY/WX   TEMP    WIND        PRES    WAVE   SWELL
                          AIR SEA DIR/SP/G            HT/PER HT/PER
                          (F)     (DEG/KT/KT) (MB)    (FT/S) (FT/S)
NAPLES                     71 82              1015.2F
DRY TORTUGAS               80     130/ 13/ 14 1014.3S
SAND KEY                   80                 1014.1F
SOMBRERO KEY               80                 1013.6F

$$
FLZ067-068-071>074-168-172>174-170900-
SOUTHEAST FLORIDA 
  
CITY           SKY/WX    TMP DP  RH WIND       PRES   REMARKS
W PALM BEACH   FAIR      76  63  64 E6        29.99S                  
FT LAUDER-EXEC FAIR      71  66  84 CALM      29.98R                  
FT LAUDERDALE  FAIR      74  65  73 NE3       29.97S                  
POMPANO BEACH  FAIR      77  64  64 E5        29.98R                  
PEMBROKE PINES FAIR      69  66  90 N5        29.99S                  
OPA LOCKA      FAIR      72  66  81 CALM      29.98S                  
MIAMI          FAIR      76  65  68 N3        29.98S                  
WEST KENDALL   FAIR      71  66  84 CALM      29.97S                  
HOMESTEAD      FAIR      73  67  80 NE3       29.96S                  

STATION/POSITION SKY/WX   TEMP    WIND        PRES    WAVE   SWELL
                          AIR SEA DIR/SP/G            HT/PER HT/PER
                          (F)     (DEG/KT/KT) (MB)    (FT/S) (FT/S)
PORT EVERGLADES            78      70/  7/ 10 1015.1R
VIRGINIA KEY               78 83   50/  5/  9 1014.3S
LAKE WORTH                 77 80              1016.5R
SETTLEMENT POINT           76      80/  8/ 10 1015.8R

$$